Location: Diebersbach
(48.5163°N, 8.0558°E)
Time: 01:43:22
(UTC+00:00)

Cosmos 1825 - Pass Details

Date: 02 November 2021
Orbit: 501 x 504 km, 82.5° (Epoch: 01 December)

Event Time Altitude Azimuth Distance (km) Brightness Sun altitude
Rises 05:15:50 0° 135° (SE) 2,587 6.8 -10.3°
Reaches altitude 10° 05:19:34 10° 96° (E) 1,712 6.5 -9.7°
Maximum altitude 05:20:24 11° 83° (E) 1,673 6.1 -9.6°
Drops below altitude 10° 05:21:15 10° 70° (ENE) 1,715 5.8 -9.4°
Sets 05:25:00 0° 31° (NNE) 2,608 6.0 -8.8°
